CAPE
0 0 0 0 0 0 0 0 0 0 0 0 0 0 0 0 0 0 0 0 0 0 0 0 0 0 0 0 0 0 1 4 9 16 26 37 41 40
0 0 0 0 0 0 0 0 0 0 0 0 0 0 0 1 6 0 0 0 0 0 0 0 0 0 0 0 0 0 1 2 2 7 17 21 21 27
0 1 0 0 1 0 0 0 0 0 0 0 0 0 2 6 7 0 0 3 3 0 0 0 0 0 0 0 0 0 0 0 2 4 9 14 15 12
0 1 0 3 2 2 0 0 0 0 4 1 0 1 2 7 11 9 0 0 0 0 0 0 0 0 0 0 0 0 0 1 3 3 5 11 16 12
3 2 1 3 1 0 1 0 1 1 5 10 5 4 8 10 12 7 5 12 0 0 0 0 0 0 0 0 0 0 0 0 0 0 0 1 3 5
2 3 4 1 0 1 1 2 2 4 4 6 9 11 17 16 12 1 4 12 1 0 0 0 0 0 0 0 0 0 0 0 0 0 0 0 0 1
7 3 6 6 0 0 0 0 0 0 0 5 9 17 14 23 14 0 5 4 3 0 0 0 4 1 0 2 0 2 0 0 0 0 0 0 0 1
0 0 0 1 1 0 0 0 0 0 0 0 0 3 5 1 3 1 3 0 2 0 1 1 2 0 2 2 2 0 0 0 0 0 0 2 1 1
0 0 0 0 1 7 15 0 0 0 0 0 0 0 0 0 6 6 2 0 3 0 0 0 3 5 6 2 4 0 0 0 0 0 0 0 0 0
0 0 0 1 5 9 11 14 4 12 6 0 0 0 0 0 5 9 0 0 0 0 4 3 8 4 6 7 3 1 0 0 0 0 0 0 0 0
0 0 0 0 0 0 0 2 5 1 12 8 6 6 0 0 0 0 0 0 0 1 6 0 3 0 2 1 9 0 0 0 0 0 0 4 2 0
0 0 0 0 0 0 0 0 1 0 2 20 34 0 0 0 0 0 0 0 3 3 2 5 1 0 0 1 7 8 15 6 1 0 1 2 7 8
0 0 0 0 0 0 0 2 3 1 0 5 17 10 2 0 0 0 0 0 0 1 3 0 0 1 2 3 2 9 8 12 7 3 8 5 8 8
0 0 0 0 0 0 0 0 0 0 1 2 5 8 0 0 0 2 0 0 1 1 6 6 0 4 5 3 6 3 9 8 0 0 7 5 3 11
0 0 0 0 0 0 0 0 0 4 3 7 2 5 0 0 0 3 2 4 3 3 3 2 2 2 4 7 4 4 4 4 1 0 12 4 3 4
0 0 0 0 3 1 1 1 2 1 0 1 4 6 1 0 0 3 2 1 0 0 0 4 5 1 3 3 3 3 3 2 0 1 7 0 2 15
0 0 3 1 0 0 0 0 14 15 4 0 1 2 4 2 0 0 0 1 1 3 1 7 3 0 0 1 0 0 5 6 6 3 0 0 3 11
0 0 0 3 1 1 0 1 0 4 0 0 0 0 4 7 8 1 0 1 2 1 1 1 1 3 3 1 0 0 12 9 8 0 0 4 0 3
0 0 0 3 2 1 0 0 1 0 0 0 0 6 4 9 9 1 1 1 3 1 0 1 2 4 4 2 5 0 0 3 1 2 6 6 5 0
0 0 0 0 2 1 0 0 0 0 0 1 0 0 1 6 12 2 1 2 1 0 1 2 0 0 1 2 0 0 0 0 4 3 3 2 0 0
0 0 0 0 0 1 1 0 0 0 0 0 7 7 0 2 5 2 1 1 2 1 2 1 0 0 0 0 0 0 0 0 0 0 0 0 0 1
0 0 0 1 4 2 1 0 0 0 0 0 0 5 1 1 1 2 1 1 1 0 0 0 0 0 0 0 0 2 11 0 0 0 0 0 0 0
0 1 1 3 5 3 2 1 1 0 0 0 0 0 1 2 3 0 0 2 1 0 0 1 0 0 0 0 0 0 0 2 5 12 0 0 0 0
CIN
0 0 0 0 0 0 0 0 0 0 0 0 0 0 0 0 -1 0 -1 0 0 0 0 0 0 0 0 0 0 0 -1 -1 -2 -2 -2 -2 -3 -2
0 0 -1 -1 0 0 0 0 0 0 0 0 0 0 0 -1 -3 0 0 0 0 0 0 0 0 0 0 0 0 0 0 -1 -1 -1 -1 -2 -2 -2
0 0 -1 -1 -1 -2 0 0 0 0 0 0 0 0 -1 -1 -2 0 0 0 -1 0 0 0 0 0 0 0 0 0 0 0 0 -1 -1 -2 -2 -2
0 0 -2 -2 -1 -1 -1 0 0 0 -1 0 0 0 -2 -1 -3 -3 0 0 -2 0 0 0 0 0 0 0 0 0 0 0 -1 0 -1 -1 -1 -2
0 -2 -2 -2 -3 -1 -1 0 -1 -2 -1 0 0 -1 -1 -1 -2 -1 -3 -1 -2 0 0 0 0 0 0 0 0 0 0 0 0 0 0 0 0 0
-3 -1 -1 -2 -2 -1 -1 -1 -1 -1 0 -1 0 0 -1 0 -1 -10 -4 -1 -4 -1 0 0 0 0 0 0 0 0 0 0 0 0 0 0 0 0
-1 -1 -1 -1 -4 0 0 0 0 0 -1 0 0 0 0 0 -1 -19 -6 -5 -3 0 0 -2 -1 -1 -1 -2 -4 -2 -2 0 0 0 0 0 0 0
0 0 -1 -1 -4 0 0 0 0 0 0 0 0 -1 -2 -5 -9 -12 -9 -3 -3 0 -3 -3 -2 -1 0 0 -4 0 0 0 0 0 0 0 0 0
0 0 0 0 -1 -1 -4 0 0 0 0 0 0 0 0 0 -3 -5 -2 0 -3 -1 -4 0 -1 -1 -1 -2 -1 -1 0 0 0 0 0 0 0 0
0 0 0 0 0 -2 -4 -3 -3 -3 -3 0 0 0 -1 -1 -1 -1 -1 0 0 0 -1 -1 -1 -1 -1 -1 -2 -3 -2 0 0 0 0 0 0 0
0 0 0 0 0 0 0 -16 -8 -1 -2 -12 -17 -9 -1 0 0 -1 0 0 0 -2 0 -1 -2 -1 -1 -2 0 0 0 0 0 0 0 -4 -4 -3
0 0 0 0 0 0 0 0 0 0 -1 -1 -1 0 0 0 0 0 0 0 -1 -1 -2 -3 -5 -3 0 -1 -1 -2 0 -1 -1 0 -3 -4 -6 -4
0 0 0 0 0 0 0 0 0 0 0 0 0 -11 0 0 -1 0 0 0 0 -2 -2 -3 0 -3 -2 -1 -1 -1 0 -1 -6 -3 -2 -2 -1 -2
0 0 0 0 0 0 0 0 0 0 0 0 0 -4 0 0 0 -1 -1 0 0 -1 -1 -2 0 -2 -2 -1 -1 -2 -1 -4 -1 0 -1 -1 -1 -1
0 0 0 0 0 0 0 0 0 -2 -1 0 0 0 0 0 0 -1 -2 -1 -1 -1 0 -2 -3 -2 -2 0 -1 -2 0 -2 -2 -3 -1 -1 -1 -5
0 0 0 0 -3 0 0 0 0 0 0 -1 0 -1 0 0 -3 0 -2 -2 0 0 0 -1 0 -1 -2 -1 -1 -1 -1 -2 0 0 -1 0 -3 0
0 0 0 0 -1 -1 0 0 -1 -1 -2 0 0 0 0 -1 -1 -2 0 -1 0 -1 -1 -2 -2 0 0 -2 0 0 -2 -2 -2 -1 0 -1 -2 0
0 0 -1 -1 -1 0 0 0 0 -1 -2 0 0 0 0 -1 0 0 0 0 -1 -1 -2 -2 -4 -2 -3 -5 0 0 -2 -1 -1 -1 0 0 -2 -1
0 0 -1 -2 -2 -2 -1 0 0 0 0 0 0 0 0 -1 0 0 0 0 0 -1 -2 -2 -2 -2 -1 -2 -7 0 0 -3 -5 -1 -1 -1 -1 0
0 0 0 -2 -2 -3 -2 0 0 0 0 0 0 -4 -2 0 0 0 0 0 0 -1 -1 -2 -3 -3 -1 -1 -1 0 0 0 -2 -1 -1 -1 0 0
0 0 0 0 -3 -4 -2 -1 0 0 0 0 0 0 -1 0 0 0 0 -1 -1 -1 -1 -2 -2 0 0 0 0 0 0 0 0 0 -1 -1 -1 -2
0 0 -2 -3 -2 -3 -2 -1 0 0 0 0 0 0 0 0 0 0 0 0 -1 0 -1 0 0 0 0 0 -1 -1 -1 -1 0 0 0 0 0 0
-2 -3 -3 -2 -2 -2 -2 -2 -2 0 0 0 0 0 0 0 0 0 0 0 -1 0 0 -1 0 0 0 0 0 0 -1 -4 -1 -1 0 0 0 0
Wind_Speed
24 26 26 26 25 25 27 28 33 38 36 31 32 27 26 27 26 28 28 30 32 32 34 33 32 31 31 32 34 35 37 39 41 42 44 44 45 46
22 25 26 27 27 26 26 28 28 33 37 32 32 30 29 29 26 26 29 31 30 29 29 27 27 28 29 30 31 34 36 38 40 41 43 44 45 46
24 24 28 27 29 28 29 29 29 30 35 35 32 31 31 31 29 29 29 28 31 30 28 25 26 27 27 28 31 33 33 34 35 36 38 40 42 43
23 26 28 28 29 28 29 29 31 30 34 38 36 35 34 32 32 30 29 29 30 29 29 26 26 24 25 27 28 29 31 31 32 36 39 39 40 40
26 28 29 29 30 29 29 31 32 33 33 35 37 35 35 33 32 30 29 28 29 30 26 23 22 21 22 22 23 26 28 28 29 34 38 38 38 39
27 27 29 29 30 30 30 32 33 34 35 36 37 36 35 33 30 31 31 29 29 28 30 28 24 20 21 20 19 19 21 25 30 33 34 36 36 37
26 28 29 29 29 29 31 33 35 37 37 38 38 37 35 33 31 30 31 29 30 28 28 25 26 26 29 27 26 24 23 25 30 34 36 37 36 36
31 31 32 32 31 31 31 32 32 35 37 38 39 39 37 35 32 31 30 30 32 27 27 27 28 29 27 28 27 27 29 31 32 32 34 35 36 37
32 34 35 34 34 35 35 33 34 35 34 35 36 35 35 33 31 30 26 28 29 28 29 30 27 25 27 30 30 26 26 26 27 32 33 33 34 35
33 35 37 37 37 39 41 41 38 36 33 32 32 31 29 28 26 24 26 25 26 27 24 24 26 27 28 30 34 33 22 20 25 32 32 34 34 34
37 37 38 41 40 44 45 45 43 41 36 34 30 28 24 22 21 21 21 25 25 24 23 25 28 28 27 33 29 28 25 27 29 31 33 35 34 33
39 39 40 42 44 45 45 44 44 42 40 36 30 25 21 20 17 16 19 21 20 22 24 24 25 28 33 31 25 31 27 24 29 32 32 34 31 29
42 43 42 44 46 46 43 42 41 40 39 36 31 25 19 14 14 11 11 13 15 18 23 25 27 28 29 35 32 30 30 31 30 30 31 32 30 25
42 43 45 47 48 46 43 40 37 35 32 29 26 22 17 13 13 12 11 13 13 15 20 25 25 26 29 33 35 31 29 27 27 29 29 29 30 22
42 44 47 48 46 43 38 34 30 28 27 24 21 18 14 12 12 13 15 14 14 18 21 21 22 22 23 30 33 30 31 29 23 26 27 27 26 24
44 45 44 43 43 38 34 31 27 22 19 20 17 15 10 10 11 12 12 14 14 19 18 16 14 16 23 26 28 30 30 28 23 29 26 25 21 20
45 43 43 44 43 40 37 37 29 24 20 17 14 12 9 10 11 11 12 12 13 18 19 18 10 9 11 16 21 20 24 22 24 26 26 23 21 20
41 42 43 42 42 39 37 36 36 27 19 13 9 9 11 12 12 12 12 11 13 18 19 19 20 19 19 15 4 11 20 24 25 27 25 21 20 24
39 41 42 41 40 38 36 34 33 34 23 16 12 10 12 16 14 13 12 11 14 18 18 19 18 18 24 26 22 11 20 23 24 25 23 18 18 16
38 40 41 39 38 37 36 34 32 33 33 18 15 16 18 18 15 16 13 12 14 16 15 16 16 16 17 24 24 24 10 13 20 25 25 21 9 11
39 40 39 38 37 36 34 32 32 32 33 33 24 19 18 18 16 15 13 13 16 15 13 16 17 17 18 20 21 19 13 6 10 18 23 20 18 16
39 39 38 36 36 35 34 32 32 33 32 32 31 25 22 22 17 15 15 16 14 13 15 19 13 16 17 16 21 22 20 15 8 6 11 14 15 16
39 37 36 35 35 34 33 33 33 32 32 32 31 31 31 28 17 17 18 16 14 12 13 16 16 15 17 19 22 23 22 20 18 12 8 8 8 7
Wind_Direction
316 315 315 320 325 325 325 325 323 321 322 325 324 324 322 319 318 319 320 322 324 323 321 323 323 324 323 320 317 314 311 307 302 298 294 290 288 285
318 315 315 318 321 324 324 324 322 320 318 322 323 323 322 319 319 323 322 320 318 318 319 320 322 324 323 321 318 315 312 309 304 299 295 291 287 284
314 313 316 318 319 321 322 322 320 319 317 319 321 322 321 319 315 316 318 320 322 321 322 323 323 324 323 320 319 317 315 312 309 304 298 293 289 286
311 313 316 318 317 319 320 319 319 318 317 316 319 319 318 318 317 316 317 320 320 321 322 321 320 322 323 323 323 321 318 315 311 304 294 289 287 284
314 314 316 317 317 318 318 318 318 318 317 316 316 319 317 317 316 315 315 318 320 320 318 316 319 321 322 323 325 325 323 319 313 303 290 285 283 282
316 315 316 316 316 316 316 316 317 317 317 316 315 315 316 316 315 315 315 317 319 324 323 324 322 322 322 322 322 323 324 322 314 304 297 292 290 287
317 316 315 314 313 313 314 314 316 317 317 316 314 314 315 315 314 317 316 316 319 323 323 324 326 327 326 329 329 326 327 324 313 303 296 292 293 292
319 318 317 316 313 308 305 304 305 309 310 312 313 313 313 314 316 313 312 315 317 323 322 322 324 323 327 328 331 329 324 317 311 306 302 297 293 290
320 319 319 318 318 316 314 307 305 305 303 308 310 311 312 313 314 313 310 314 315 321 320 318 321 322 326 324 326 331 328 321 315 308 307 306 302 297
321 321 320 319 319 318 317 315 311 306 304 302 302 306 308 313 311 309 314 315 318 318 317 315 320 321 324 322 320 321 329 325 315 307 309 310 306 301
324 323 322 321 321 321 320 316 313 309 308 302 298 297 299 308 312 314 312 316 315 315 317 315 318 320 323 319 327 332 336 319 312 309 309 308 307 303
327 326 325 323 322 321 320 317 313 312 311 307 301 300 295 297 300 299 307 310 312 313 314 316 317 319 317 319 332 327 333 331 315 307 310 309 310 313
327 327 327 326 324 322 320 318 315 315 312 308 305 298 292 288 303 303 305 314 314 311 313 314 314 315 317 308 319 328 332 326 313 308 309 310 315 322
329 328 328 327 324 322 319 316 314 314 312 307 301 295 289 284 297 303 305 307 311 311 314 311 313 315 315 311 311 327 334 334 318 309 316 318 321 328
331 329 328 328 327 327 325 322 321 319 315 311 300 294 283 284 295 305 310 312 313 312 311 311 313 316 317 312 312 325 327 330 329 316 321 327 332 331
333 333 332 332 334 331 328 329 327 325 322 317 301 296 286 285 295 303 309 316 313 314 315 313 315 319 317 316 319 324 327 325 327 311 326 336 345 345
334 335 337 338 338 338 338 339 334 331 322 319 306 295 285 295 296 303 309 314 312 314 315 315 321 320 326 329 329 338 338 336 323 321 325 339 347 348
336 337 338 339 338 338 338 337 340 336 335 328 316 299 300 306 307 303 304 307 310 312 313 312 313 318 321 329 304 341 342 333 319 315 328 343 349 342
337 338 338 339 339 338 337 337 336 337 339 337 334 321 310 310 307 301 301 300 307 310 311 308 313 317 311 311 331 3 345 340 328 318 333 350 351 356
337 337 337 338 338 337 336 334 332 328 328 325 319 316 313 311 307 302 295 298 304 308 312 309 312 319 323 314 319 321 12 7 345 321 327 348 15 13
336 336 336 336 336 336 335 334 329 324 317 316 316 314 314 313 306 303 298 300 302 303 307 307 310 320 321 325 324 333 6 61 29 348 336 353 5 10
334 334 335 334 334 334 335 332 326 319 315 313 314 315 311 308 303 298 299 302 300 301 302 299 317 321 320 325 318 323 339 10 45 60 23 21 22 15
333 334 334 333 333 333 333 330 323 317 312 308 309 306 304 299 297 293 296 298 297 302 301 299 309 317 316 314 310 312 322 342 1 29 41 55 60 66